Tiempo cada hora Czyzewo

Hoy, 4 Agosto, Miércoles

Tiempo Temperatura Precipitaciones Viento Presión Humedad
00:00 +17°C° 0 mm 2 mps 752 mmHg 66%
01:00 +17°C° 0 mm 2 mps 752 mmHg 67%
02:00 +16°C° 0.3 mm 1 mps 752 mmHg 72%
03:00 +16°C° 0.3 mm 1 mps 752 mmHg 78%
04:00 +15°C° 0.3 mm 1 mps 752 mmHg 83%
05:00 +15°C° 0.5 mm 1 mps 752 mmHg 85%
06:00 +16°C° 0.5 mm 1 mps 752 mmHg 86%
07:00 +16°C° 0.5 mm 1 mps 753 mmHg 88%
08:00 +16°C° 0.1 mm 1 mps 753 mmHg 85%
09:00 +18°C° 0.1 mm 1 mps 753 mmHg 82%
10:00 +19°C° 0.1 mm 1 mps 753 mmHg 78%
11:00 +19°C° 0.1 mm 2 mps 753 mmHg 70%
12:00 +20°C° 0.1 mm 2 mps 752 mmHg 63%
13:00 +22°C° 0.1 mm 3 mps 752 mmHg 55%
14:00 +22°C° 0.1 mm 3 mps 752 mmHg 52%
15:00 +22°C° 0.1 mm 3 mps 752 mmHg 50%
16:00 +24°C° 0.1 mm 3 mps 752 mmHg 47%
17:00 +22°C° 0 mm 3 mps 752 mmHg 52%
18:00 +21°C° 0 mm 2 mps 752 mmHg 57%
19:00 +20°C° 0 mm 2 mps 752 mmHg 61%
20:00 +18°C° 0 mm 2 mps 752 mmHg 65%
21:00 +17°C° 0 mm 2 mps 752 mmHg 70%
22:00 +16°C° 0 mm 2 mps 752 mmHg 74%
23:00 +15°C° 0 mm 2 mps 752 mmHg 77%

Mañana, 5 Agosto, Jueves

Tiempo Temperatura Precipitaciones Viento Presión Humedad
00:00 +15°C° 0 mm 2 mps 752 mmHg 81%
01:00 +14°C° 0 mm 2 mps 752 mmHg 84%
02:00 +14°C° 0 mm 2 mps 752 mmHg 87%
03:00 +13°C° 0 mm 2 mps 752 mmHg 89%
04:00 +13°C° 0 mm 2 mps 752 mmHg 92%
05:00 +13°C° 0 mm 3 mps 752 mmHg 86%
06:00 +16°C° 0 mm 3 mps 752 mmHg 81%
07:00 +17°C° 0 mm 4 mps 751 mmHg 75%
08:00 +19°C° 0 mm 4 mps 751 mmHg 68%
09:00 +21°C° 0 mm 4 mps 751 mmHg 61%
10:00 +22°C° 0 mm 4 mps 751 mmHg 55%
11:00 +23°C° 0.2 mm 4 mps 751 mmHg 53%
12:00 +25°C° 0.2 mm 4 mps 750 mmHg 50%
13:00 +25°C° 0.2 mm 4 mps 750 mmHg 48%
14:00 +25°C° 0.1 mm 4 mps 750 mmHg 49%
15:00 +25°C° 0.1 mm 4 mps 749 mmHg 50%
16:00 +25°C° 0.1 mm 4 mps 749 mmHg 50%
17:00 +24°C° 0.1 mm 3 mps 749 mmHg 53%
18:00 +22°C° 0.1 mm 3 mps 749 mmHg 56%
19:00 +21°C° 0.1 mm 3 mps 749 mmHg 59%
20:00 +20°C° 0 mm 3 mps 749 mmHg 61%
21:00 +19°C° 0 mm 2 mps 749 mmHg 64%
22:00 +18°C° 0 mm 2 mps 749 mmHg 67%
23:00 +18°C° 0 mm 2 mps 749 mmHg 68%

Pasado mañana, 6 Agosto, Viernes

Tiempo Temperatura Precipitaciones Viento Presión Humedad
00:00 +18°C° 0 mm 2 mps 748 mmHg 69%
01:00 +19°C° 0 mm 1 mps 748 mmHg 70%
02:00 +19°C° 0 mm 1 mps 748 mmHg 71%
03:00 +18°C° 0 mm 2 mps 748 mmHg 72%
04:00 +17°C° 0 mm 2 mps 748 mmHg 73%
05:00 +18°C° 0 mm 2 mps 748 mmHg 73%
06:00 +18°C° 0 mm 2 mps 748 mmHg 73%
07:00 +18°C° 0 mm 2 mps 748 mmHg 72%
08:00 +20°C° 0.1 mm 2 mps 748 mmHg 67%
09:00 +21°C° 0.1 mm 2 mps 748 mmHg 62%
10:00 +23°C° 0.1 mm 2 mps 748 mmHg 57%
11:00 +23°C° 0.2 mm 2 mps 748 mmHg 54%
12:00 +24°C° 0.2 mm 3 mps 748 mmHg 52%
13:00 +24°C° 0.2 mm 3 mps 748 mmHg 49%
14:00 +24°C° 0 mm 3 mps 748 mmHg 48%
15:00 +24°C° 0 mm 3 mps 748 mmHg 46%
16:00 +24°C° 0 mm 3 mps 748 mmHg 45%
17:00 +22°C° 0 mm 3 mps 748 mmHg 48%
18:00 +21°C° 0 mm 3 mps 748 mmHg 51%
19:00 +20°C° 0 mm 2 mps 748 mmHg 55%
20:00 +19°C° 0 mm 2 mps 748 mmHg 58%
21:00 +17°C° 0 mm 2 mps 748 mmHg 62%
22:00 +16°C° 0 mm 2 mps 748 mmHg 66%
23:00 +16°C° 0 mm 2 mps 748 mmHg 69%

7 Agosto, Sábado

Tiempo Temperatura Precipitaciones Viento Presión Humedad
00:00 +15°C° 0 mm 2 mps 748 mmHg 71%
01:00 +15°C° 0 mm 2 mps 749 mmHg 74%
02:00 +15°C° 0 mm 2 mps 748 mmHg 76%
03:00 +15°C° 0 mm 2 mps 748 mmHg 78%
04:00 +14°C° 0 mm 2 mps 748 mmHg 81%
05:00 +16°C° 0 mm 2 mps 748 mmHg 78%
06:00 +17°C° 0 mm 2 mps 748 mmHg 76%
07:00 +19°C° 0 mm 2 mps 748 mmHg 74%
08:00 +20°C° 0 mm 2 mps 748 mmHg 68%
09:00 +22°C° 0 mm 3 mps 748 mmHg 61%
10:00 +25°C° 0 mm 3 mps 748 mmHg 55%
11:00 +26°C° 0.1 mm 4 mps 748 mmHg 50%
12:00 +27°C° 0.1 mm 4 mps 748 mmHg 45%
13:00 +27°C° 0.1 mm 5 mps 748 mmHg 40%
14:00 +27°C° 0 mm 5 mps 748 mmHg 40%
15:00 +27°C° 0 mm 5 mps 748 mmHg 41%
16:00 +27°C° 0 mm 4 mps 748 mmHg 41%
17:00 +25°C° 0 mm 3 mps 748 mmHg 46%
18:00 +24°C° 0 mm 2 mps 748 mmHg 52%
19:00 +23°C° 0 mm 1 mps 748 mmHg 57%
20:00 +22°C° 0.1 mm 1 mps 748 mmHg 62%
21:00 +21°C° 0.1 mm 1 mps 748 mmHg 66%
22:00 +21°C° 0.1 mm 1 mps 748 mmHg 71%
23:00 +20°C° 0.6 mm 1 mps 748 mmHg 79%

8 Agosto, Domingo

Tiempo Temperatura Precipitaciones Viento Presión Humedad
00:00 +18°C° 0.6 mm 2 mps 749 mmHg 86%
01:00 +17°C° 0.6 mm 2 mps 749 mmHg 94%
02:00 +17°C° 0.2 mm 2 mps 749 mmHg 94%
03:00 +17°C° 0.2 mm 3 mps 749 mmHg 94%
04:00 +17°C° 0.2 mm 3 mps 749 mmHg 94%
05:00 +18°C° 0 mm 4 mps 749 mmHg 92%
06:00 +18°C° 0 mm 4 mps 749 mmHg 89%
07:00 +17°C° 0 mm 5 mps 750 mmHg 87%
08:00 +20°C° 0 mm 5 mps 750 mmHg 75%
09:00 +21°C° 0 mm 5 mps 750 mmHg 63%
10:00 +23°C° 0 mm 5 mps 751 mmHg 52%
11:00 +25°C° 0 mm 5 mps 751 mmHg 46%
12:00 +26°C° 0 mm 5 mps 752 mmHg 41%
13:00 +27°C° 0 mm 5 mps 752 mmHg 36%
14:00 +27°C° 0 mm 5 mps 752 mmHg 35%
15:00 +27°C° 0 mm 5 mps 752 mmHg 35%
16:00 +27°C° 0 mm 4 mps 753 mmHg 35%
17:00 +26°C° 0 mm 4 mps 753 mmHg 39%
18:00 +24°C° 0 mm 3 mps 753 mmHg 44%
19:00 +22°C° 0 mm 3 mps 753 mmHg 48%
20:00 +21°C° 0 mm 3 mps 754 mmHg 55%
21:00 +19°C° 0 mm 2 mps 754 mmHg 61%
22:00 +18°C° 0 mm 2 mps 755 mmHg 68%
23:00 +17°C° 0 mm 2 mps 755 mmHg 73%

9 Agosto, Lunes

Tiempo Temperatura Precipitaciones Viento Presión Humedad
00:00 +16°C° 0 mm 2 mps 755 mmHg 78%
01:00 +16°C° 0 mm 2 mps 755 mmHg 82%
02:00 +15°C° 0 mm 2 mps 755 mmHg 85%
03:00 +15°C° 0 mm 2 mps 755 mmHg 87%
04:00 +14°C° 0 mm 2 mps 756 mmHg 90%
05:00 +16°C° 0 mm 2 mps 756 mmHg 84%
06:00 +17°C° 0 mm 2 mps 756 mmHg 78%
07:00 +18°C° 0 mm 2 mps 756 mmHg 73%
08:00 +20°C° 0 mm 2 mps 756 mmHg 64%
09:00 +21°C° 0 mm 2 mps 757 mmHg 56%
10:00 +24°C° 0 mm 3 mps 757 mmHg 47%
11:00 +25°C° 0 mm 3 mps 756 mmHg 43%
12:00 +26°C° 0 mm 4 mps 756 mmHg 39%
13:00 +27°C° 0 mm 4 mps 756 mmHg 35%
14:00 +27°C° 0 mm 4 mps 756 mmHg 36%
15:00 +26°C° 0 mm 3 mps 755 mmHg 37%
16:00 +26°C° 0 mm 3 mps 755 mmHg 38%
17:00 +25°C° 0 mm 3 mps 755 mmHg 42%
18:00 +22°C° 0 mm 3 mps 755 mmHg 46%
19:00 +21°C° 0 mm 3 mps 755 mmHg 50%
20:00 +20°C° 0.1 mm 3 mps 756 mmHg 60%
21:00 +18°C° 0.1 mm 3 mps 756 mmHg 71%
22:00 +17°C° 0.1 mm 3 mps 756 mmHg 81%
23:00 +16°C° 0.1 mm 2 mps 756 mmHg 84%
Mostrar más

Necesitamos Su Consentimiento

Meteoprog y nuestros Proveedores de Servicios pueden almacenar y acceder a sus datos personales como cookies, identificadores de dispositivo u otras tecnologías similares de su dispositivo y procesar dichos datos para personalizar contenido y anuncios, además de ofrecer funciones de redes sociales y analizar el tráfico.

  • Almacenar y/o acceder a información en su dispositivo

    Se puede almacenar o acceder a cookies, identificadores de dispositivo u otra información de su dispositivo para los fines anteriormente indicados.

  • Anuncios y contenido personalizados, medición de anuncios y contenido, percepciones del público, y desarrollo de productos

    Los anuncios y el contenido pueden personalizarse en base a su perfil. Se pueden añadir más datos para personalizar mejor los anuncios y contenidos. Se puede medir el rendimiento de los anuncios y contenidos. Se puede obtener la percepción sobre el público que ha visto los anuncios y contenidos. Dichos datos pueden usarse para desarrollar o mejorar la experiencia del usuario, sistemas y software.

Al hacer clic en ‘Estoy De Acuerdo’ usted permitirá el uso de las cookies, identificadores de dispositivo, balizas web u otras tecnologías similares indicadas. Su configuración puede cambiarse desde el navegador de su dispositivo.

Para ciertos fines, los intereses legítimos pueden ser considerados por encima del consentimiento. Puede leer más sobre ello en nuestra Política de Privacidad y Cookies.